[[{"header":{"parameterUnit":"m.s-1","parameterCategory":1,"la1":30.2991,"la2":30.254,"lo1":-89.0895,"lo2":-89.0444,"dy":0.0017,"dx":0.0017,"nx":28,"ny":28,"refTime":"2024-03-19T09:00:00:Z","depth":0,"parameterNumber":2,"parameterNumberName":"U-component_of_WINDS"},"data":[0,0,0,0,0,0,0,0,0,0,0,0,0,0,0,0,0,0,0,0,0,0,0,0,0,0,0,0,0,0,0,0,0,0,0,0,0,0,0,0,0,0,0,0,0,0,0,0,0,0,0,0,0,0,0,0,0,0,-0.8744,-0.8744,0,-0.8748,-0.8748,-0.8748,-0.8739,-0.8738,-0.8738,-0.8738,-0.8743,-0.8743,-0.8743,0,0,0,0,0,0,0,0,0,0,0,0,0,-0.873,-0.873,-0.8744,-0.8744,-0.8744,-0.8748,-0.8748,-0.8748,-0.8739,-0.8738,-0.8738,-0.8738,-0.8742,-0.8743,-0.8743,0,0,0,0,0,0,0,0,0,0,0,0,0,-0.8735,-0.873,-0.8744,-0.874,-0.874,-0.8748,-0.8748,-0.8748,-0.8739,-0.8738,-0.8738,-0.8737,-0.8742,-0.8743,-0.8743,-0.8756,0,0,-0.8745,-0.8746,0,0,0,0,0,0,0,0,-0.8735,-0.8736,-0.8741,-0.874,-0.874,-0.8742,-0.8745,-0.8751,-0.8739,-0.8739,-0.8738,-0.8737,-0.8743,-0.8743,-0.8745,-0.8757,-0.8757,-0.8745,-0.8746,-0.8746,-0.8746,0,0,0,0,0,0,0,-0.8735,-0.8736,-0.8746,-0.8741,-0.874,-0.8738,-0.8739,-0.8746,-0.8744,-0.8739,-0.8738,-0.8739,-0.8743,-0.8745,-0.8745,-0.8757,-0.8745,-0.8746,-0.8746,-0.8747,-0.8779,-0.878,0,0,0,0,0,0,-0.8735,-0.8735,-0.8746,-0.8746,-0.8736,-0.8739,-0.8739,-0.8742,-0.8743,-0.8743,-0.8739,-0.8738,-0.8744,-0.8745,-0.8745,-0.8761,-0.8746,-0.8747,-0.8747,-0.8779,-0.8779,-0.878,0,0,0,0,0,0,-0.8734,-0.8736,-0.8746,-0.874,-0.8742,-0.874,-0.8743,-0.8742,-0.8744,-0.8744,-0.8743,-0.8742,-0.8743,-0.8744,-0.8754,-0.8761,-0.8747,-0.8747,-0.8778,-0.8779,-0.878,-0.8792,0,0,0,0,0,0,-0.8734,-0.8736,-0.874,-0.8741,-0.8742,-0.8754,-0.8743,-0.8743,-0.8745,-0.8744,-0.8746,-0.8746,-0.8743,-0.8753,-0.8754,-0.8762,-0.8748,-0.8778,-0.8779,-0.8779,-0.8791,-0.8793,-0.8795,0,0,0,0,0,-0.8733,-0.8744,-0.8741,-0.8742,-0.8748,-0.8754,-0.8755,-0.8752,-0.8746,-0.8751,-0.875,-0.8746,-0.876,-0.8754,-0.8755,-0.8763,-0.8777,-0.8778,-0.8779,-0.879,-0.8793,-0.8795,0,0,0,0,0,0,-0.8745,-0.8744,-0.874,-0.8751,-0.8753,-0.8753,-0.8759,-0.8754,-0.8758,-0.8757,-0.8753,-0.8753,-0.8764,-0.8764,-0.8758,-0.8776,-0.8768,-0.8769,-0.8775,-0.8778,-0.878,-0.878,-0.8748,0,0,0,0,0,-0.8749,-0.8754,-0.8752,-0.8762,-0.8763,-0.8761,-0.8763,-0.8761,-0.8762,-0.8763,-0.8763,-0.8766,-0.8771,-0.8774,-0.8778,-0.8791,-0.8791,-0.8797,-0.8799,-0.88,-0.8802,-0.8809,-0.8812,-0.8784,-0.8784,-0.8784,0,0,-0.8757,-0.8757,-0.876,-0.8764,-0.8765,-0.8771,-0.8761,-0.8768,-0.8772,-0.8764,-0.8773,-0.8773,-0.8775,-0.8786,-0.8791,-0.8787,-0.881,-0.8802,-0.8803,-0.8804,-0.881,-0.8813,-0.8816,-0.8784,-0.8784,-0.8784,0,0,-0.8774,-0.8774,-0.8783,-0.8784,-0.8785,-0.8783,-0.8785,-0.8786,-0.8785,-0.8794,-0.8788,-0.8793,-0.8802,-0.8804,-0.8806,-0.8823,-0.8819,-0.8825,-0.8836,-0.8843,-0.8845,-0.8847,-0.8854,-0.8856,-0.8826,-0.8826,-0.8826,0,-0.8784,-0.8792,-0.8787,-0.8794,-0.8796,-0.8789,-0.8797,-0.8799,-0.8802,-0.8804,-0.8799,-0.8809,-0.881,-0.8822,-0.8826,-0.8828,-0.883,-0.8825,-0.8845,-0.8847,-0.8848,-0.8855,-0.8858,-0.8827,-0.8827,-0.8827,-0.8827,0,-0.8804,-0.881,-0.8816,-0.8819,-0.8822,-0.883,-0.8827,-0.883,-0.8827,-0.8826,-0.8835,-0.8835,-0.884,-0.8842,-0.8839,-0.8853,-0.8851,-0.8845,-0.8837,-0.8852,-0.8858,-0.8861,-0.8828,-0.8828,-0.8828,-0.8828,0,0,-0.883,-0.883,-0.8833,-0.8834,-0.8835,-0.8839,-0.8846,-0.885,-0.8854,-0.8856,-0.8862,-0.8869,-0.8864,-0.8867,-0.8864,-0.8869,-0.8884,-0.8863,-0.8863,-0.8868,-0.89,-0.8905,-0.8908,-0.8881,-0.8881,-0.8882,-0.8901,0,-0.8848,-0.8861,-0.8856,-0.8869,-0.8874,-0.8867,-0.8873,-0.8875,-0.8874,-0.8878,-0.8877,-0.8883,-0.8875,-0.8877,-0.8882,-0.8881,-0.8891,-0.888,-0.8888,-0.8888,-0.8888,-0.8911,-0.8916,-0.8934,-0.8903,-0.8903,-0.8904,0,-0.8871,-0.8874,-0.8887,-0.8887,-0.8889,-0.8895,-0.8898,-0.8902,-0.8904,-0.8903,-0.8905,-0.8901,-0.8908,-0.8899,-0.891,-0.8902,-0.8905,-0.8905,-0.8906,-0.8907,-0.8897,-0.8914,-0.894,-0.8943,-0.8907,-0.8907,-0.8907,0,-0.889,-0.8897,-0.8905,-0.8907,-0.8906,-0.8911,-0.8911,-0.8912,-0.8914,-0.8917,-0.8919,-0.8923,-0.8926,-0.8929,-0.8926,-0.8919,-0.8937,-0.8928,-0.8937,-0.8937,-0.8942,-0.8942,-0.8969,-0.8942,-0.8942,-0.8942,-0.8942,0,-0.8911,-0.8919,-0.8914,-0.8919,-0.8929,-0.8924,-0.8933,-0.8933,-0.8933,-0.8939,-0.8932,-0.8938,-0.8933,-0.8938,-0.8936,-0.8945,-0.8946,-0.8946,-0.8945,-0.8947,-0.8947,-0.8949,-0.8949,-0.8943,-0.8942,-0.8942,-0.8942,0,-0.8934,-0.893,-0.894,-0.8938,-0.8938,-0.8945,-0.8944,-0.895,-0.8948,-0.8955,-0.8956,-0.8953,-0.8959,-0.8956,-0.8962,-0.896,-0.8973,-0.897,-0.8972,-0.8972,-0.8982,-0.8981,-0.9012,-0.9016,-0.8986,-0.8986,-0.8986,0,-0.8948,-0.8955,-0.8954,-0.8957,-0.8957,-0.8962,-0.8965,-0.896,-0.8963,-0.8965,-0.897,-0.8975,-0.8979,-0.8988,-0.8987,-0.8991,-0.8989,-0.9,-0.899,-0.8991,-0.899,-0.8991,-0.8991,-0.9002,-0.9002,-0.9003,-0.9003,0,-0.8974,-0.8972,-0.8976,-0.8979,-0.8982,-0.8985,-0.8987,-0.8989,-0.8984,-0.8988,-0.8994,-0.8997,-0.9002,-0.9007,-0.9011,-0.9012,-0.9007,-0.9006,-0.9008,-0.9011,-0.9012,-0.9012,-0.8979,-0.9005,-0.9005,-0.9005,-0.9005,-0.9005,-0.8994,-0.8999,-0.9,-0.9004,-0.9005,-0.9007,-0.9012,-0.901,-0.9014,-0.9018,-0.9015,-0.9022,-0.9023,-0.9027,-0.9028,-0.9034,-0.9029,-0.9033,-0.9034,-0.9035,-0.9037,-0.901,-0.9034,-0.9034,-0.9034,-0.9034,-0.9034,0,-0.902,-0.902,-0.9024,-0.9027,-0.903,-0.9024,-0.9026,-0.903,-0.9036,-0.9037,-0.904,-0.9047,-0.9051,-0.905,-0.9055,-0.9059,-0.9057,-0.9061,-0.9061,-0.9061,-0.904,-0.9038,-0.9062,-0.9062,-0.9062,-0.9062,-0.9062,-0.9062,-0.9035,-0.9044,-0.9041,-0.9051,-0.905,-0.9056,-0.9058,-0.906,-0.9061,-0.9068,-0.9072,-0.9071,-0.9071,-0.9075,-0.908,-0.9079,-0.9082,-0.9086,-0.9085,-0.9065,-0.9063,-0.906,-0.9058,-0.9086,-0.9086,-0.9106,-0.9106,-0.9106]},{"header":{"parameterUnit":"m.s-1","parameterCategory":1,"la1":30.2991,"la2":30.254,"lo1":-89.0895,"lo2":-89.0444,"dy":0.0017,"dx":0.0017,"nx":28,"ny":28,"refTime":"2024-03-19T09:00:00:Z","depth":0,"parameterNumber":3,"parameterNumberName":"V-component_of_WINDS"},"data":[0,0,0,0,0,0,0,0,0,0,0,0,0,0,0,0,0,0,0,0,0,0,0,0,0,0,0,0,0,0,0,0,0,0,0,0,0,0,0,0,0,0,0,0,0,0,0,0,0,0,0,0,0,0,0,0,0,0,-0.3842,-0.3842,0,-0.3834,-0.3834,-0.3834,-0.387,-0.3871,-0.3872,-0.3873,-0.3864,-0.3863,-0.3862,0,0,0,0,0,0,0,0,0,0,0,0,0,-0.3887,-0.3886,-0.3842,-0.3842,-0.3842,-0.3834,-0.3834,-0.3834,-0.3869,-0.3871,-0.3872,-0.3873,-0.3864,-0.3863,-0.3862,0,0,0,0,0,0,0,0,0,0,0,0,0,-0.3872,-0.3886,-0.3842,-0.3858,-0.386,-0.3834,-0.3834,-0.3834,-0.3869,-0.3871,-0.3872,-0.3874,-0.3865,-0.3863,-0.3861,-0.3819,0,0,-0.3856,-0.3855,0,0,0,0,0,0,0,0,-0.3873,-0.3871,-0.3856,-0.3857,-0.3859,-0.3854,-0.3847,-0.3829,-0.3869,-0.3866,-0.3873,-0.3875,-0.386,-0.3858,-0.3853,-0.3818,-0.3818,-0.3856,-0.3855,-0.3854,-0.3853,0,0,0,0,0,0,0,-0.3874,-0.3871,-0.3839,-0.3856,-0.3857,-0.3866,-0.3866,-0.3844,-0.3854,-0.3866,-0.3869,-0.3867,-0.3861,-0.3855,-0.3853,-0.3818,-0.3856,-0.3854,-0.3853,-0.3852,-0.3748,-0.3746,0,0,0,0,0,0,-0.3873,-0.3872,-0.3839,-0.3838,-0.387,-0.3864,-0.3864,-0.3854,-0.3854,-0.3856,-0.3866,-0.3869,-0.3857,-0.3855,-0.3853,-0.3803,-0.3854,-0.3852,-0.3851,-0.3749,-0.3747,-0.3745,0,0,0,0,0,0,-0.3874,-0.387,-0.3839,-0.3856,-0.3853,-0.3862,-0.3851,-0.3853,-0.3848,-0.3854,-0.3856,-0.3858,-0.3858,-0.3856,-0.3827,-0.3803,-0.3851,-0.385,-0.3751,-0.3749,-0.3746,-0.3702,0,0,0,0,0,0,-0.3875,-0.387,-0.3854,-0.3855,-0.3852,-0.3813,-0.3849,-0.3852,-0.3845,-0.3848,-0.3847,-0.3849,-0.3859,-0.383,-0.3825,-0.3802,-0.3848,-0.3753,-0.375,-0.3747,-0.3706,-0.3699,-0.3692,0,0,0,0,0,-0.3876,-0.3842,-0.3853,-0.3849,-0.3832,-0.3812,-0.381,-0.3823,-0.3842,-0.3826,-0.3831,-0.3849,-0.3807,-0.3826,-0.3822,-0.3797,-0.3755,-0.3751,-0.3747,-0.3709,-0.37,-0.3692,0,0,0,0,0,0,-0.3837,-0.3842,-0.3854,-0.3819,-0.3815,-0.3818,-0.3798,-0.3813,-0.3803,-0.3807,-0.3823,-0.3823,-0.3791,-0.3792,-0.3813,-0.3756,-0.3784,-0.3779,-0.3757,-0.3748,-0.3741,-0.3741,-0.3847,0,0,0,0,0,-0.3824,-0.3807,-0.3813,-0.3781,-0.3778,-0.3788,-0.378,-0.3791,-0.3787,-0.3785,-0.3787,-0.3782,-0.3768,-0.3758,-0.3746,-0.3707,-0.3707,-0.3687,-0.3681,-0.3675,-0.367,-0.3649,-0.364,-0.3733,-0.3733,-0.3733,0,0,-0.3797,-0.3798,-0.3786,-0.3773,-0.3771,-0.3753,-0.3787,-0.3766,-0.3753,-0.3782,-0.3755,-0.3756,-0.3752,-0.3718,-0.3703,-0.3717,-0.3645,-0.367,-0.3666,-0.3664,-0.3644,-0.3635,-0.3628,-0.373,-0.3731,-0.3731,0,0,-0.3739,-0.3738,-0.3711,-0.3709,-0.3705,-0.3712,-0.3706,-0.3707,-0.3709,-0.3682,-0.3703,-0.3688,-0.3663,-0.3659,-0.3654,-0.3595,-0.3611,-0.359,-0.3554,-0.3533,-0.3526,-0.352,-0.3498,-0.349,-0.3586,-0.3586,-0.3586,0,-0.3706,-0.368,-0.3696,-0.3674,-0.3667,-0.3693,-0.3666,-0.3662,-0.3655,-0.365,-0.3666,-0.3635,-0.3634,-0.3599,-0.3585,-0.358,-0.3573,-0.359,-0.3526,-0.352,-0.3514,-0.3493,-0.3485,-0.3583,-0.3583,-0.3584,-0.3584,0,-0.3639,-0.3621,-0.36,-0.3592,-0.3583,-0.3559,-0.357,-0.356,-0.3571,-0.3576,-0.3549,-0.3549,-0.3536,-0.3529,-0.354,-0.3496,-0.3504,-0.3523,-0.3552,-0.3502,-0.3483,-0.3475,-0.3579,-0.358,-0.3581,-0.3582,0,0,-0.3555,-0.3556,-0.3548,-0.3545,-0.3543,-0.3529,-0.3506,-0.3494,-0.3484,-0.3478,-0.3459,-0.3438,-0.3455,-0.3449,-0.346,-0.3442,-0.3394,-0.3463,-0.3463,-0.3449,-0.3344,-0.3329,-0.332,-0.3406,-0.3404,-0.3403,-0.3344,0,-0.3497,-0.3457,-0.3471,-0.3431,-0.3414,-0.3438,-0.3418,-0.3415,-0.3419,-0.3406,-0.3411,-0.3395,-0.342,-0.3416,-0.3399,-0.3403,-0.3373,-0.3408,-0.3387,-0.3386,-0.3386,-0.331,-0.3294,-0.3239,-0.3337,-0.3336,-0.3335,0,-0.3424,-0.3415,-0.3373,-0.3374,-0.3368,-0.3349,-0.3339,-0.3326,-0.3323,-0.3328,-0.3321,-0.3336,-0.3313,-0.3343,-0.3312,-0.3335,-0.3328,-0.3328,-0.3327,-0.3324,-0.3357,-0.3305,-0.3221,-0.3213,-0.3323,-0.3324,-0.3325,0,-0.3365,-0.3343,-0.3315,-0.3312,-0.3312,-0.3299,-0.3299,-0.3297,-0.3289,-0.3281,-0.3275,-0.3264,-0.3258,-0.3249,-0.326,-0.3281,-0.3227,-0.3258,-0.323,-0.3229,-0.3216,-0.3217,-0.313,-0.3213,-0.3213,-0.3213,-0.3214,0,-0.3298,-0.3272,-0.3289,-0.3271,-0.3242,-0.3258,-0.3228,-0.3231,-0.3229,-0.3213,-0.3234,-0.3218,-0.3234,-0.322,-0.3229,-0.3201,-0.3198,-0.3201,-0.3203,-0.3198,-0.3198,-0.3193,-0.3196,-0.3211,-0.3212,-0.3212,-0.3213,0,-0.3227,-0.3238,-0.3209,-0.3212,-0.3212,-0.319,-0.3193,-0.3177,-0.3184,-0.3162,-0.3158,-0.3168,-0.3152,-0.3163,-0.3147,-0.3153,-0.3116,-0.3125,-0.3117,-0.3119,-0.309,-0.3092,-0.2996,-0.2983,-0.3076,-0.3075,-0.3074,0,-0.3183,-0.3163,-0.3165,-0.3155,-0.3154,-0.3138,-0.313,-0.3145,-0.3136,-0.3131,-0.3115,-0.3101,-0.3091,-0.3064,-0.3069,-0.3057,-0.3065,-0.3032,-0.3063,-0.3059,-0.3063,-0.3064,-0.3062,-0.3025,-0.3024,-0.3023,-0.3023,0,-0.3104,-0.311,-0.3098,-0.3087,-0.3077,-0.307,-0.3064,-0.3055,-0.3071,-0.3059,-0.3043,-0.3035,-0.3019,-0.3004,-0.2994,-0.2994,-0.301,-0.3013,-0.3006,-0.3,-0.2996,-0.2996,-0.3099,-0.3015,-0.3016,-0.3016,-0.3017,-0.3017,-0.3045,-0.3028,-0.3026,-0.3012,-0.3009,-0.3003,-0.2988,-0.2993,-0.298,-0.2967,-0.2978,-0.2958,-0.2956,-0.2944,-0.2942,-0.2927,-0.294,-0.293,-0.2927,-0.2924,-0.2919,-0.2999,-0.2925,-0.2925,-0.2926,-0.2926,-0.2926,0,-0.2966,-0.2966,-0.2953,-0.2944,-0.2932,-0.295,-0.2944,-0.2933,-0.2916,-0.2913,-0.2902,-0.2883,-0.2869,-0.2874,-0.2862,-0.2849,-0.2856,-0.2845,-0.2845,-0.2845,-0.2908,-0.2916,-0.2839,-0.2839,-0.2839,-0.2839,-0.2839,-0.2839,-0.2923,-0.2895,-0.2901,-0.2872,-0.2873,-0.2854,-0.2849,-0.2844,-0.2841,-0.282,-0.2808,-0.2812,-0.2811,-0.2799,-0.2787,-0.2789,-0.2783,-0.2769,-0.2773,-0.2832,-0.284,-0.2849,-0.2855,-0.2768,-0.2767,-0.2711,-0.271,-0.271]}]]